Other Public Products
Issued by NWS Grand Forks, ND

Home | Current Version | Previous Version | Graphics & Text | Print | Product List | Glossary On
Versions: 1 2 3 4 5 6 7 8 9 10 11 12 13 14 15 16 17 18 19 20 21 22 23 24 25 26 27 28 29 30 31 32 33 34 35 36 37 38 39 40 41 42 43 44 45 46 47 48 49 50
610
FPUS83 KFGF 250231
OPUFGF
PRAIRIE TO PINES WEATHER ROUNDUP
NATIONAL WEATHER SERVICE EASTERN NORTH DAKOTA/GRAND FORKS ND
900 PM CDT SUN JUL 24 2016

 **SATELLITE DATA USED TO AUGMENT SKY COVER AT AUTOMATED STATIONS**
 *****  WEATHER ACROSS EASTERN NORTH DAKOTA  *****

CITY           SKY/WX    TMP DP  RH WIND       PRES   REMARKS
GRAND FORKS    PTCLDY    71  62  73 W7        29.92R
GRAND FORKS AF CLEAR     72  61  66 W7        29.94R
GRAND CITY NWS   N/A     70 N/A N/A W5          N/A
BUXTON           N/A     72  64  75 W3          N/A
DEVILS LAKE    CLEAR     71  60  68 W7        29.98R
FARGO          CLEAR     75  61  61 W5        29.95R
WAHPETON ARPT  CLEAR     68  59  73 W6        29.98R
$$

 *****  WEATHER ACROSS CENTRAL AND WESTERN NORTH DAKOTA  *****

CITY           SKY/WX    TMP DP  RH WIND       PRES   REMARKS
JAMESTOWN      CLEAR     71  58  63 NW7       30.00R
BISMARCK       CLEAR     75  60  59 E8        30.01S
MINOT          CLEAR     76  61  59 NE3       29.98S
MINOT AFB      CLEAR     75  58  55 NE5       29.97S
GARRISON         N/A     74  64  71 CALM      30.00S
WILLISTON      CLEAR     83  56  39 CALM      29.97S
DICKINSON      CLEAR     77  54  44 E5        30.01S
HETTINGER      CLEAR     80  47  31 E8        30.06R
$$

 *****  OTHER OBSERVATIONS NORTHEAST NORTH DAKOTA  *****

CITY           SKY/WX    TMP DP  RH WIND       PRES   REMARKS
WALHALLA       FAIR      72  68  88 W3        29.92S
LANGDON        FAIR      66  64  94 W6        29.97R
CAVALIER       FAIR      70  63  78 W7        29.91S
GRAFTON        FAIR      73  64  73 W7        29.93S
CANDO          FAIR      66  63  88 W6        29.99S
FORT TOTTEN    NOT AVBL
ROLLA            N/A     64  57  77 NW7       29.99R
RUGBY          NOT AVBL
 ***** THE ABOVE OBSERVATIONS ARE NON NWS ARE NOT QUALITY
        CONTROLLED AND MAY MIS-REPORT RAIN FOR SNOW...
$$

 *****  OTHER OBSERVATIONS SOUTHEAST NORTH DAKOTA *****

CITY           SKY/WX    TMP DP  RH WIND       PRES   REMARKS
COOPERSTOWN    NOT AVBL
VALLEY CITY      N/A     68  63  83 W7        30.01S
OAKES            N/A    N/A N/A N/A MISG        N/A
GWINNER        FAIR      70  61  73 W7        30.00S
SHEYENNE NWR     N/A     75  59  57 W2        29.95S
BUFFALO          N/A     69  55  60 NW6         N/A
WYNDMERE         N/A     72  63  73 SW2         N/A
 ***** THE ABOVE OBSERVATIONS ARE NON NWS ARE NOT QUALITY
       CONTROLLED AND MAY MIS-REPORT RAIN FOR SNOW...
$$

  *****  WEATHER ACROSS NORTHERN MINNESOTA  *****

CITY           SKY/WX    TMP DP  RH WIND       PRES   REMARKS
FLAG ISLAND    MOCLDY    70  61  73 W10       29.87R
WARROAD        CLEAR     70  63  78 W6        29.89R
ROSEAU         CLEAR     70  63  78 W5        29.89S
HALLOCK        CLEAR     72  66  83 W3        29.90R
THF RVR FALLS  CLEAR     70  62  76 W7        29.93R
HALSTAD        NOT AVBL
FOSSTON        CLEAR     66  61  82 W5        29.95R
BAUDETTE       MOCLDY    70  62  76 NW6       29.88R
WASKISH        MOCLDY    73  63  68 W15       29.90R
CROOKSTON      CLEAR     68  63  83 W7        29.93S
$$
  *****  WEATHER ACROSS CENTRAL AND WEST MINNESOTA  *****

CITY           SKY/WX    TMP DP  RH WIND       PRES   REMARKS
BEMIDJI        CLEAR     70  61  73 W6        29.93R
PARK RAPIDS    MOCLDY    72  60  66 W7        29.95R
WADENA         CLEAR     70  57  64 W7        29.96S
DETROIT LAKES  CLEAR     70  59  68 W3        29.98S
MOORHEAD       CLEAR     72  61  68 NW5       29.96S
FERGUS FALLS   CLEAR     70  61  73 W6        29.98S
ELBOW LAKE     FAIR      68  61  77 NW5       29.99S
MORRIS MN      CLEAR     70  63  78 W5        29.99R
STAPLES        CLEAR     66  61  82 W5        29.96S
WHEATON        CLEAR     75  63  64 W5        30.00S
$$
  *****  WEATHER ELSEWHERE ACROSS MINNESOTA  *****

CITY           SKY/WX    TMP DP  RH WIND       PRES   REMARKS
DULUTH         PTCLDY    72  60  66 W8        29.88S
INTRNTL FALLS  PTCLDY    68  59  73 W7        29.86R
ELY            PTCLDY    70  59  68 W6        29.86R
CLOQUET        CLEAR     72  57  60 W6        29.90R
BRAINERD       CLEAR     74  60  61 W8        29.94R
HIBBING        CLEAR     69  58  67 W6        29.88R
ALEXANDRIA     CLEAR     71  58  63 W7        30.00R
SAINT CLOUD    CLEAR     74  61  63 W8        29.94R
MINNEAPOLIS    PTCLDY    77  63  61 W8        29.93S
$$

  *****  WEATHER ACROSS SOUTH DAKOTA  *****

CITY           SKY/WX    TMP DP  RH WIND       PRES   REMARKS
SIOUX FALLS    PTCLDY    73  64  73 W3        30.05R
BROOKINGS      CLEAR     73  65  75 W6        30.04R
WATERTOWN      CLEAR     74  59  59 NW6       30.04R
HURON          CLEAR     75  63  66 CALM      30.03R
SISSETON         N/A     72  59  63 W6        29.99R
ABERDEEN       CLEAR     77  58  51 NW6       30.02R
MITCHELL       CLEAR     75  60  59 CALM      30.05R
PIERRE         CLEAR     79  50  36 CALM      30.04R
MOBRIDGE       CLEAR     81  55  40 E6        30.02R
RAPID CITY     CLEAR     77  51  40 SE9       30.08R
$$

  *****  SOME WEATHER IN NEARBY STATES *****

CITY           SKY/WX    TMP DP  RH WIND       PRES   REMARKS
GLASGOW MT     CLEAR     82  51  34 NE6       29.96S
GREAT FALLS MT CLEAR     83  35  18 E6        29.99F
CHEYENNE WY    CLEAR     65  53  65 S22G29    30.27R
SCOTTSBLUFF NE PTCLDY    76  55  48 E13       30.12R
OMAHA NE       PTCLDY    76  68  76 N5        30.00S
DES MOINES IA  CLOUDY    80  66  62 N8        29.98S
DAVENPORT IA   CLOUDY    75  69  81 NW6       29.93S
CHICAGO IL     CLOUDY    75  72  90 S7        29.88R
EAU CLAIRE WI  CLEAR     73  63  70 NW6       29.89S
LA CROSSE WI   CLEAR     77  65  66 W7        29.90R
$$

  *****  SOME NATIONAL WEATHER *****

CITY           SKY/WX    TMP DP  RH WIND       PRES   REMARKS
LA GUARDIA NY  MOCLDY    86  67  52 SW9       29.96R
RALEIGH NC     MOCLDY    84  74  71 SE3       30.03R HX  91
ATLANTA GA     MOCLDY    84  71  65 CALM      30.05R
NEW ORLEANS LA MOCLDY    84  78  82 CALM      29.97R HX  95
OKLAHOMA CITY  PTCLDY    90  71  53 SE8       29.92R HX  96
ALBUQUERQUE NM CLOUDY    78  54  43 N23       30.18S
SALT LAKE CITY PTCLDY    93  31  11 N8        30.01S
LOS ANGELES CA MOSUNNY   75  66  73 W9        29.88R
BOISE ID       SUNNY     90  33  13 W10       29.95F
SEATTLE WA     SUNNY     79  57  46 N12       30.03F
$$

*** WEATHER ACROSS MANITOBA...SASKATCHEWAN AND ONTARIO ***
                ***ONTARIO***

CITY           SKY/WX    TMP DP  RH WIND       PRES   REMARKS
GERALDTON      MOCLDY    68  66  94 SW7       29.69R
THUNDER BAY    PTCLDY    70  61  73 SW7       29.74R
SIOUX LOOKOUT  MOCLDY    64  63  94 W8        29.76S
TORONTO        MOCLDY    73  64  73 SE7       29.92S
BIG TROUT LK   CLOUDY    63  61  94 NW10      29.56R
PICKLE LAKE    LGT RAIN  64  63  94 W13G18    29.65R
DRYDEN         MOCLDY    64  61  88 W14       29.81R
KENORA         PTCLDY    66  57  72 NW6       29.86R
$$
                *** MANITOBA***

CITY           SKY/WX    TMP DP  RH WIND       PRES   REMARKS
BRANDON        PTCLDY    68  63  83 W5        29.94R
DAUPHIN        CLEAR     68  61  77 W9        29.88S
ISLAND LAKE    PTCLDY    64  63  94 W7        29.75S
PILOT MOUND      N/A     68  61  77 W3          N/A
THE PAS        MOCLDY    75  57  53 W7        29.80S
THOMPSON       MOCLDY    68  59  73 CALM      29.77S
WINNIPEG       PTCLDY    66  63  88 W7        29.89R
LYNN LAKE      LGT RAIN  68  57  68 MISG      29.71F
CHURCHILL      MOCLDY    50  48  93 NE7       29.82S
GILLAM         PTCLDY    66  54  63 N9        29.76R
$$
                ***SASKATCHEWAN***

CITY           SKY/WX    TMP DP  RH WIND       PRES   REMARKS
ESTEVAN        CLEAR     70  61  73 N7        29.99R
KINDERSLEY     PTCLDY    73  63  68 S5        29.94S
LLOYDMINSTER   MOSUNNY   75  54  46 SW10      29.87F
PRINCE ALBERT  PTCLDY    75  57  53 W9        29.84F
REGINA         CLEAR     73  55  53 NW2       29.97
YORKTON        CLEAR     70  59  68 W5        29.93S   C1F1C2F2C3F3C4F4C5F5C6F6C7F7C8F8C9F9CaFaCbFbCcFcCdFdCe!



USA.gov is the U.S. government's official web portal to all federal, state and local government web resources and services.